| time (UTC) | temp F | wind direction | speed MPH | gust MPH | rain 1hr in | rain 24hr in | rain mn in | humidity % | barometer mb |
| 20260904122018 | 64 | 309 | 0.0 | 8.0 | 0.00 | 0.02 | 0.00 | 99 | 1012.5 |
| 20260904121535 | 64 | 323 | 2.0 | 8.0 | 0.00 | 0.02 | 0.00 | 99 | 1012.6 |
| 20260904121017 | 64 | 0 | 2.0 | 8.0 | 0.00 | 0.02 | 0.00 | 99 | 1012.7 |
| 20260904120518 | 63 | 0 | 2.0 | 8.0 | 0.00 | 0.02 | 0.00 | 99 | 1012.6 |
| 20260904120038 | 63 | 284 | 3.0 | 8.0 | 0.00 | 0.02 | 0.00 | 99 | 1012.5 |
| 20260904115520 | 64 | 0 | 1.0 | 8.0 | 0.00 | 0.05 | 0.00 | 99 | 1012.6 |
| 20260904115017 | 63 | 292 | 3.0 | 8.0 | 0.00 | 0.05 | 0.00 | 99 | 1012.5 |
| 20260904114538 | 64 | 338 | 2.0 | 6.0 | 0.00 | 0.05 | 0.00 | 99 | 1012.5 |
| 20260904114019 | 63 | 0 | 3.0 | 6.0 | 0.00 | 0.05 | 0.00 | 99 | 1012.4 |
| 20260904113520 | 63 | 360 | 2.0 | 5.0 | 0.00 | 0.05 | 0.00 | 99 | 1012.4 |
| 20260904113038 | 63 | 360 | 2.0 | 5.0 | 0.00 | 0.05 | 0.00 | 99 | 1012.2 |
| 20260904112519 | 63 | 360 | 3.0 | 5.0 | 0.00 | 0.05 | 0.00 | 99 | 1012.1 |
| 20260904112019 | 63 | 360 | 1.0 | 5.0 | 0.00 | 0.05 | 0.00 | 99 | 1012.2 |
| 20260904111536 | 63 | 360 | 2.0 | 5.0 | 0.00 | 0.05 | 0.00 | 99 | 1012.2 |
| 20260904111018 | 63 | 360 | 1.0 | 5.0 | 0.00 | 0.05 | 0.00 | 99 | 1012.3 |
| 20260904110516 | 63 | 0 | 1.0 | 5.0 | 0.00 | 0.05 | 0.00 | 99 | 1012.3 |
| 20260904110034 | 63 | 360 | 1.0 | 6.0 | 0.00 | 0.05 | 0.00 | 99 | 1012.2 |
| 20260904105519 | 63 | 0 | 1.0 | 8.0 | 0.00 | 0.06 | 0.00 | 99 | 1012.2 |
| 20260904105020 | 63 | 360 | 2.0 | 8.0 | 0.00 | 0.06 | 0.00 | 99 | 1012.2 |
| 20260904104536 | 63 | 360 | 3.0 | 6.0 | 0.00 | 0.06 | 0.00 | 99 | 1012.2 |
| 20260904104020 | 63 | 360 | 2.0 | 6.0 | 0.00 | 0.06 | 0.00 | 99 | 1012.2 |
| 20260904103519 | 63 | 360 | 1.0 | 5.0 | 0.00 | 0.06 | 0.00 | 99 | 1012.1 |
| 20260904103035 | 63 | 360 | 2.0 | 5.0 | 0.00 | 0.06 | 0.00 | 99 | 1012.1 |
| 20260904102518 | 63 | 360 | 2.0 | 8.0 | 0.00 | 0.06 | 0.00 | 99 | 1012.0 |
| 20260904102018 | 63 | 0 | 0.0 | 8.0 | 0.00 | 0.06 | 0.00 | 99 | 1011.9 |
| 20260904101536 | 63 | 360 | 1.0 | 6.0 | 0.00 | 0.06 | 0.00 | 99 | 1012.0 |
| 20260904101017 | 63 | 0 | 1.0 | 6.0 | 0.00 | 0.06 | 0.00 | 99 | 1012.0 |
| 20260904100517 | 63 | 360 | 2.0 | 6.0 | 0.00 | 0.06 | 0.00 | 99 | 1012.0 |
| 20260904100035 | 63 | 360 | 2.0 | 8.0 | 0.00 | 0.06 | 0.00 | 99 | 1012.0 |
| 20260904095518 | 63 | 360 | 2.0 | 9.0 | 0.00 | 0.07 | 0.00 | 99 | 1012.0 |
| 20260904095019 | 63 | 360 | 4.0 | 9.0 | 0.00 | 0.07 | 0.00 | 99 | 1012.0 |
| 20260904094541 | 63 | 0 | 3.0 | 9.0 | 0.00 | 0.07 | 0.00 | 99 | 1012.1 |
| 20260904094019 | 63 | 360 | 3.0 | 9.0 | 0.00 | 0.07 | 0.00 | 99 | 1012.1 |
| 20260904093517 | 63 | 360 | 2.0 | 6.0 | 0.00 | 0.07 | 0.00 | 99 | 1012.0 |
| 20260904093039 | 63 | 360 | 3.0 | 8.0 | 0.00 | 0.07 | 0.00 | 99 | 1012.0 |
| 20260904092520 | 63 | 360 | 2.0 | 8.0 | 0.00 | 0.07 | 0.00 | 99 | 1012.0 |
| 20260904092017 | 63 | 360 | 2.0 | 8.0 | 0.00 | 0.07 | 0.00 | 99 | 1012.0 |
| 20260904091536 | 63 | 360 | 2.0 | 8.0 | 0.00 | 0.07 | 0.00 | 99 | 1012.0 |
| 20260904091019 | 63 | 360 | 2.0 | 9.0 | 0.00 | 0.07 | 0.00 | 99 | 1012.1 |
| 20260904090520 | 63 | 360 | 2.0 | 9.0 | 0.00 | 0.07 | 0.00 | 99 | 1012.0 |
| 20260904090036 | 63 | 360 | 4.0 | 11.0 | 0.00 | 0.07 | 0.00 | 99 | 1012.1 |
| 20260904085518 | 63 | 360 | 3.0 | 11.0 | 0.00 | 0.20 | 0.00 | 99 | 1012.1 |
| 20260904085019 | 63 | 360 | 4.0 | 11.0 | 0.00 | 0.20 | 0.00 | 99 | 1012.1 |
| 20260904084537 | 63 | 360 | 4.0 | 9.0 | 0.00 | 0.20 | 0.00 | 99 | 1012.2 |
| 20260904084020 | 63 | 360 | 2.0 | 8.0 | 0.00 | 0.20 | 0.00 | 99 | 1012.2 |
| 20260904083518 | 63 | 360 | 2.0 | 8.0 | 0.00 | 0.20 | 0.00 | 99 | 1012.2 |
| 20260904083043 | 63 | 360 | 3.0 | 8.0 | 0.00 | 0.20 | 0.00 | 99 | 1012.2 |
| 20260904082519 | 63 | 360 | 2.0 | 9.0 | 0.00 | 0.20 | 0.00 | 99 | 1012.1 |
| 20260904082019 | 63 | 360 | 4.0 | 9.0 | 0.00 | 0.20 | 0.00 | 99 | 1012.0 |
| 20260904081534 | 63 | 360 | 3.0 | 8.0 | 0.00 | 0.20 | 0.00 | 99 | 1012.0 |
| 20260904081017 | 63 | 360 | 3.0 | 8.0 | 0.00 | 0.20 | 0.00 | 99 | 1011.9 |
| 20260904080518 | 63 | 360 | 2.0 | 6.0 | 0.00 | 0.20 | 0.00 | 99 | 1011.9 |
| 20260904080035 | 63 | 360 | 3.0 | 6.0 | 0.00 | 0.20 | 0.00 | 99 | 1011.9 |
| 20260904075517 | 63 | 360 | 2.0 | 8.0 | 0.00 | 0.20 | 0.00 | 99 | 1012.0 |
| 20260904075020 | 63 | 360 | 3.0 | 9.0 | 0.00 | 0.20 | 0.00 | 99 | 1012.0 |
| 20260904074536 | 63 | 360 | 3.0 | 9.0 | 0.00 | 0.20 | 0.00 | 99 | 1012.0 |
| 20260904074017 | 63 | 360 | 2.0 | 9.0 | 0.00 | 0.20 | 0.00 | 99 | 1012.0 |
| 20260904073518 | 63 | 360 | 2.0 | 10.0 | 0.00 | 0.20 | 0.00 | 99 | 1012.1 |
| 20260904073037 | 63 | 360 | 4.0 | 10.0 | 0.00 | 0.20 | 0.00 | 99 | 1012.2 |
| 20260904072517 | 63 | 360 | 4.0 | 9.0 | 0.00 | 0.20 | 0.00 | 99 | 1012.3 |
| 20260904072020 | 63 | 360 | 3.0 | 8.0 | 0.00 | 0.20 | 0.00 | 99 | 1012.4 |
| 20260904071534 | 63 | 360 | 3.0 | 8.0 | 0.00 | 0.20 | 0.00 | 99 | 1012.4 |
| 20260904071016 | 63 | 360 | 4.0 | 8.0 | 0.00 | 0.20 | 0.00 | 99 | 1012.5 |
| 20260904070520 | 63 | 360 | 4.0 | 8.0 | 0.00 | 0.20 | 0.00 | 99 | 1012.5 |
| 20260904070036 | 63 | 360 | 3.0 | 8.0 | 0.00 | 0.20 | 0.00 | 99 | 1012.6 |
| 20260904065520 | 63 | 360 | 3.0 | 8.0 | 0.00 | 0.20 | 0.00 | 99 | 1012.5 |
| 20260904065019 | 63 | 360 | 3.0 | 8.0 | 0.00 | 0.20 | 0.00 | 99 | 1012.5 |
| 20260904064538 | 63 | 360 | 4.0 | 9.0 | 0.00 | 0.20 | 0.00 | 99 | 1012.6 |
| 20260904064018 | 63 | 360 | 3.0 | 9.0 | 0.00 | 0.20 | 0.00 | 99 | 1012.6 |
| 20260904063517 | 63 | 360 | 3.0 | 8.0 | 0.00 | 0.20 | 0.00 | 99 | 1012.5 |
| 20260904063037 | 63 | 360 | 2.0 | 6.0 | 0.00 | 0.20 | 0.00 | 99 | 1012.5 |
| 20260904062517 | 63 | 360 | 3.0 | 6.0 | 0.00 | 0.20 | 0.00 | 99 | 1012.7 |
| 20260904062017 | 63 | 360 | 2.0 | 6.0 | 0.00 | 0.20 | 0.00 | 99 | 1012.8 |
| 20260904061539 | 63 | 360 | 3.0 | 6.0 | 0.00 | 0.20 | 0.00 | 99 | 1012.9 |
| 20260904061018 | 63 | 0 | 3.0 | 8.0 | 0.00 | 0.20 | 0.00 | 99 | 1013.1 |
| 20260904060518 | 63 | 360 | 3.0 | 8.0 | 0.00 | 0.20 | 0.00 | 99 | 1013.2 |
| 20260904060033 | 63 | 360 | 2.0 | 6.0 | 0.00 | 0.20 | 0.00 | 99 | 1013.2 |
| 20260904055520 | 63 | 360 | 3.0 | 6.0 | 0.00 | 0.20 | 0.00 | 99 | 1013.3 |
| 20260904055021 | 63 | 360 | 3.0 | 9.0 | 0.00 | 0.20 | 0.00 | 99 | 1013.3 |
| 20260904054535 | 63 | 360 | 3.0 | 9.0 | 0.00 | 0.20 | 0.00 | 99 | 1013.4 |
| 20260904054018 | 63 | 360 | 4.0 | 9.0 | 0.00 | 0.20 | 0.00 | 99 | 1013.4 |
| 20260904053518 | 63 | 360 | 3.0 | 8.0 | 0.00 | 0.20 | 0.00 | 99 | 1013.4 |
| 20260904053034 | 63 | 360 | 2.0 | 6.0 | 0.00 | 0.20 | 0.00 | 99 | 1013.4 |
| 20260904052522 | 63 | 360 | 3.0 | 6.0 | 0.00 | 0.20 | 0.00 | 99 | 1013.5 |
| 20260904052018 | 63 | 360 | 1.0 | 6.0 | 0.00 | 0.20 | 0.00 | 99 | 1013.6 |
| 20260904051534 | 63 | 360 | 2.0 | 6.0 | 0.00 | 0.20 | 0.00 | 99 | 1013.5 |
| 20260904051021 | 63 | 360 | 2.0 | 6.0 | 0.00 | 0.20 | 0.00 | 99 | 1013.5 |
| 20260904050521 | 63 | 360 | 2.0 | 6.0 | 0.00 | 0.20 | 0.00 | 99 | 1013.6 |
| 20260904050039 | 63 | 360 | 2.0 | 6.0 | 0.00 | 0.20 | 0.00 | 99 | 1013.7 |
| 20260904045520 | 63 | 360 | 1.0 | 5.0 | 0.00 | 0.20 | 0.00 | 99 | 1013.7 |
| 20260904045020 | 63 | 360 | 1.0 | 5.0 | 0.00 | 0.20 | 0.00 | 99 | 1013.7 |
| 20260904044537 | 63 | 0 | 1.0 | 5.0 | 0.00 | 0.20 | 0.00 | 99 | 1013.7 |
| 20260904044019 | 63 | 360 | 1.0 | 5.0 | 0.00 | 0.20 | 0.00 | 99 | 1013.8 |
| 20260904043518 | 63 | 360 | 2.0 | 4.0 | 0.00 | 0.20 | 0.00 | 99 | 1013.7 |
| 20260904043039 | 63 | 360 | 0.0 | 3.0 | 0.00 | 0.20 | 0.00 | 99 | 1013.9 |
| 20260904042519 | 63 | 0 | 0.0 | 4.0 | 0.00 | 0.20 | 0.00 | 99 | 1013.9 |
| 20260904042018 | 63 | 0 | 0.0 | 5.0 | 0.00 | 0.20 | 0.00 | 99 | 1014.0 |
| 20260904041535 | 63 | 360 | 2.0 | 5.0 | 0.00 | 0.20 | 0.00 | 99 | 1014.0 |
| 20260904041015 | 63 | 360 | 1.0 | 4.0 | 0.00 | 0.20 | 0.00 | 99 | 1013.9 |
| 20260904040521 | 63 | 360 | 1.0 | 4.0 | 0.00 | 0.20 | 0.00 | 99 | 1014.0 |
| 20260904040040 | 63 | 360 | 1.0 | 4.0 | 0.00 | 0.20 | 0.00 | 99 | 1014.0 |
| 20260904035521 | 63 | 0 | 1.0 | 4.0 | 0.00 | 0.20 | 0.20 | 99 | 1014.1 |
| 20260904035021 | 63 | 360 | 1.0 | 4.0 | 0.00 | 0.20 | 0.20 | 99 | 1014.3 |
| 20260904034543 | 63 | 0 | 0.0 | 3.0 | 0.00 | 0.20 | 0.20 | 99 | 1014.5 |
| 20260904034016 | 63 | 0 | 0.0 | 3.0 | 0.00 | 0.20 | 0.20 | 99 | 1014.6 |
| 20260904033519 | 63 | 360 | 0.0 | 2.0 | 0.00 | 0.20 | 0.20 | 99 | 1014.6 |
| 20260904033034 | 63 | 0 | 0.0 | 2.0 | 0.00 | 0.20 | 0.20 | 99 | 1014.7 |
| 20260904032516 | 63 | 0 | 0.0 | 2.0 | 0.00 | 0.20 | 0.20 | 99 | 1014.7 |
| 20260904032017 | 63 | 0 | 0.0 | 1.0 | 0.00 | 0.20 | 0.20 | 99 | 1014.5 |
| 20260904031537 | 63 | 0 | 0.0 | 1.0 | 0.00 | 0.20 | 0.20 | 99 | 1014.6 |
| 20260904031020 | 63 | 0 | 0.0 | 1.0 | 0.00 | 0.20 | 0.20 | 99 | 1014.5 |
| 20260904030521 | 63 | 0 | 0.0 | 1.0 | 0.00 | 0.20 | 0.20 | 99 | 1014.5 |
| 20260904030037 | 63 | 0 | 0.0 | 1.0 | 0.00 | 0.20 | 0.20 | 99 | 1014.4 |
| 20260904025518 | 63 | 0 | 0.0 | 1.0 | 0.00 | 0.20 | 0.20 | 99 | 1014.4 |
| 20260904025018 | 63 | 0 | 0.0 | 0.0 | 0.00 | 0.20 | 0.20 | 99 | 1014.5 |
| 20260904024540 | 63 | 0 | 0.0 | 0.0 | 0.00 | 0.20 | 0.20 | 99 | 1014.5 |
| 20260904024017 | 63 | 0 | 0.0 | 0.0 | 0.00 | 0.20 | 0.20 | 99 | 1014.5 |
| 20260904023520 | 63 | 0 | 0.0 | 0.0 | 0.00 | 0.20 | 0.20 | 99 | 1014.7 |
| 20260904023036 | 63 | 0 | 0.0 | 0.0 | 0.00 | 0.20 | 0.20 | 99 | 1014.8 |
| 20260904022518 | 63 | 0 | 0.0 | 0.0 | 0.00 | 0.20 | 0.20 | 99 | 1014.8 |
| 20260904022023 | 63 | 0 | 0.0 | 0.0 | 0.00 | 0.20 | 0.20 | 98 | 1014.9 |
| 20260904021538 | 63 | 0 | 0.0 | 0.0 | 0.00 | 0.20 | 0.20 | 98 | 1014.8 |
| 20260904021020 | 63 | 0 | 0.0 | 0.0 | 0.00 | 0.20 | 0.20 | 98 | 1014.9 |
| 20260904020518 | 63 | 0 | 0.0 | 0.0 | 0.00 | 0.20 | 0.20 | 98 | 1015.0 |
| 20260904020037 | 63 | 0 | 0.0 | 0.0 | 0.00 | 0.20 | 0.20 | 98 | 1014.9 |
| 20260904015523 | 63 | 0 | 0.0 | 0.0 | 0.00 | 0.20 | 0.20 | 98 | 1014.9 |
| 20260904015021 | 63 | 0 | 0.0 | 0.0 | 0.00 | 0.20 | 0.20 | 98 | 1015.0 |
| 20260904014543 | 63 | 0 | 0.0 | 0.0 | 0.00 | 0.20 | 0.20 | 98 | 1015.0 |
| 20260904014018 | 63 | 0 | 0.0 | 0.0 | 0.00 | 0.20 | 0.20 | 98 | 1015.0 |
| 20260904013517 | 63 | 0 | 0.0 | 0.0 | 0.00 | 0.20 | 0.20 | 98 | 1015.0 |
| 20260904013041 | 63 | 0 | 0.0 | 2.0 | 0.00 | 0.20 | 0.20 | 98 | 1015.1 |
| 20260904012517 | 63 | 0 | 0.0 | 2.0 | 0.00 | 0.20 | 0.20 | 98 | 1015.2 |
| 20260904012021 | 63 | 360 | 0.0 | 2.0 | 0.00 | 0.20 | 0.20 | 98 | 1015.1 |
| 20260904011541 | 63 | 0 | 0.0 | 3.0 | 0.00 | 0.20 | 0.20 | 98 | 1015.1 |
| 20260904011020 | 63 | 360 | 0.0 | 3.0 | 0.00 | 0.20 | 0.20 | 98 | 1015.1 |
| 20260904010520 | 63 | 360 | 0.0 | 4.0 | 0.00 | 0.20 | 0.20 | 98 | 1015.1 |
| 20260904010041 | 63 | 0 | 0.0 | 4.0 | 0.00 | 0.20 | 0.20 | 98 | 1015.1 |
| 20260904005523 | 63 | 0 | 0.0 | 3.0 | 0.00 | 0.20 | 0.20 | 98 | 1015.0 |
| 20260904005019 | 63 | 0 | 0.0 | 4.0 | 0.00 | 0.20 | 0.20 | 98 | 1015.0 |
| 20260904004543 | 63 | 0 | 0.0 | 4.0 | 0.00 | 0.20 | 0.20 | 98 | 1015.0 |
| 20260904004018 | 63 | 360 | 0.0 | 4.0 | 0.00 | 0.20 | 0.20 | 98 | 1014.8 |
| 20260904003518 | 63 | 0 | 0.0 | 2.0 | 0.00 | 0.20 | 0.20 | 98 | 1014.9 |
| 20260904003035 | 63 | 0 | 0.0 | 1.0 | 0.00 | 0.20 | 0.20 | 98 | 1014.7 |
| 20260904002519 | 63 | 0 | 0.0 | 3.0 | 0.00 | 0.20 | 0.20 | 98 | 1014.8 |
| 20260904002017 | 63 | 0 | 0.0 | 3.0 | 0.00 | 0.20 | 0.20 | 98 | 1014.7 |
| 20260904001536 | 63 | 0 | 1.0 | 4.0 | 0.00 | 0.20 | 0.20 | 98 | 1014.6 |
| 20260904001021 | 63 | 360 | 1.0 | 4.0 | 0.00 | 0.20 | 0.20 | 98 | 1014.5 |
| 20260904000520 | 63 | 360 | 1.0 | 5.0 | 0.00 | 0.20 | 0.20 | 98 | 1014.4 |
| 20260904000037 | 63 | 360 | 2.0 | 6.0 | 0.00 | 0.20 | 0.20 | 98 | 1014.3 |
| 20260903235520 | 63 | 360 | 1.0 | 6.0 | 0.00 | 0.20 | 0.20 | 98 | 1014.4 |
| 20260903235018 | 63 | 0 | 3.0 | 6.0 | 0.00 | 0.20 | 0.20 | 98 | 1014.2 |
| 20260903234535 | 63 | 360 | 2.0 | 5.0 | 0.00 | 0.20 | 0.20 | 98 | 1014.2 |
| 20260903234019 | 63 | 360 | 0.0 | 4.0 | 0.00 | 0.20 | 0.20 | 98 | 1014.5 |
| 20260903233521 | 63 | 0 | 0.0 | 5.0 | 0.00 | 0.20 | 0.20 | 98 | 1014.6 |
| 20260903233036 | 63 | 360 | 1.0 | 6.0 | 0.00 | 0.20 | 0.20 | 98 | 1014.4 |
| 20260903232518 | 63 | 0 | 0.0 | 6.0 | 0.00 | 0.20 | 0.20 | 98 | 1014.2 |
| 20260903232017 | 63 | 360 | 1.0 | 6.0 | 0.00 | 0.20 | 0.20 | 98 | 1014.3 |
| 20260903231536 | 63 | 0 | 1.0 | 4.0 | 0.00 | 0.20 | 0.20 | 98 | 1014.6 |
| 20260903231017 | 64 | 0 | 0.0 | 4.0 | 0.00 | 0.20 | 0.20 | 98 | 1014.8 |
| 20260903230521 | 64 | 360 | 0.0 | 4.0 | 0.00 | 0.20 | 0.20 | 98 | 1014.8 |
| 20260903230041 | 64 | 0 | 0.0 | 0.0 | 0.00 | 0.20 | 0.20 | 98 | 1014.9 |
| 20260903225518 | 64 | 0 | 0.0 | 0.0 | 0.00 | 0.20 | 0.20 | 98 | 1014.9 |
| 20260903225019 | 64 | 0 | 0.0 | 0.0 | 0.00 | 0.20 | 0.20 | 98 | 1014.9 |
| 20260903224551 | 64 | 0 | 0.0 | 0.0 | 0.00 | 0.20 | 0.20 | 98 | 1014.6 |
| 20260903224018 | 64 | 0 | 0.0 | 0.0 | 0.00 | 0.20 | 0.20 | 98 | 1014.5 |
| 20260903223517 | 64 | 0 | 0.0 | 0.0 | 0.00 | 0.20 | 0.20 | 98 | 1014.6 |
| 20260903223034 | 64 | 0 | 0.0 | 0.0 | 0.00 | 0.20 | 0.20 | 98 | 1014.9 |
| 20260903222520 | 64 | 0 | 0.0 | 0.0 | 0.00 | 0.20 | 0.20 | 98 | 1014.7 |
| 20260903222016 | 64 | 0 | 0.0 | 0.0 | 0.00 | 0.20 | 0.20 | 98 | 1014.8 |
| 20260903221536 | 64 | 0 | 0.0 | 0.0 | 0.00 | 0.20 | 0.20 | 98 | 1014.9 |
| 20260903221021 | 64 | 0 | 0.0 | 0.0 | 0.00 | 0.20 | 0.20 | 98 | 1014.9 |
| 20260903220518 | 64 | 0 | 0.0 | 0.0 | 0.00 | 0.20 | 0.20 | 97 | 1014.9 |
| 20260903220043 | 64 | 0 | 0.0 | 0.0 | 0.00 | 0.20 | 0.20 | 97 | 1014.9 |
| 20260903215521 | 64 | 0 | 0.0 | 0.0 | 0.00 | 0.20 | 0.20 | 97 | 1015.0 |
| 20260903215018 | 64 | 0 | 0.0 | 0.0 | 0.00 | 0.20 | 0.20 | 97 | 1014.9 |
| 20260903214540 | 64 | 0 | 0.0 | 0.0 | 0.00 | 0.20 | 0.20 | 98 | 1014.9 |
| 20260903214018 | 64 | 0 | 0.0 | 0.0 | 0.00 | 0.20 | 0.20 | 97 | 1014.9 |
| 20260903213517 | 64 | 0 | 0.0 | 0.0 | 0.00 | 0.20 | 0.20 | 97 | 1015.0 |
| 20260903213039 | 64 | 0 | 0.0 | 0.0 | 0.00 | 0.20 | 0.20 | 97 | 1015.0 |
| 20260903212521 | 65 | 0 | 0.0 | 0.0 | 0.00 | 0.20 | 0.20 | 97 | 1015.0 |
| 20260903212018 | 65 | 0 | 0.0 | 0.0 | 0.00 | 0.20 | 0.20 | 97 | 1015.0 |
| 20260903211541 | 65 | 0 | 0.0 | 0.0 | 0.00 | 0.20 | 0.20 | 97 | 1014.9 |
| 20260903211019 | 65 | 0 | 0.0 | 0.0 | 0.00 | 0.20 | 0.20 | 97 | 1014.9 |
| 20260903210521 | 65 | 0 | 0.0 | 0.0 | 0.00 | 0.20 | 0.20 | 97 | 1014.9 |
| 20260903210043 | 65 | 0 | 0.0 | 0.0 | 0.00 | 0.20 | 0.20 | 97 | 1014.8 |
| 20260903205520 | 65 | 0 | 0.0 | 0.0 | 0.00 | 0.20 | 0.20 | 97 | 1014.9 |
| 20260903205020 | 65 | 0 | 0.0 | 0.0 | 0.00 | 0.20 | 0.20 | 97 | 1014.9 |
| 20260903204546 | 65 | 0 | 0.0 | 0.0 | 0.00 | 0.20 | 0.20 | 98 | 1015.0 |
| 20260903204017 | 65 | 0 | 0.0 | 0.0 | 0.00 | 0.20 | 0.20 | 98 | 1015.0 |
| 20260903203517 | 65 | 0 | 0.0 | 0.0 | 0.00 | 0.20 | 0.20 | 98 | 1015.0 |
| 20260903203036 | 65 | 0 | 0.0 | 0.0 | 0.00 | 0.20 | 0.20 | 98 | 1015.1 |
| 20260903202520 | 64 | 0 | 0.0 | 1.0 | 0.00 | 0.20 | 0.20 | 98 | 1015.0 |
| 20260903202020 | 64 | 0 | 0.0 | 3.0 | 0.00 | 0.20 | 0.20 | 98 | 1015.1 |
| 20260903201543 | 64 | 0 | 0.0 | 3.0 | 0.00 | 0.20 | 0.20 | 98 | 1015.1 |
| 20260903201019 | 64 | 0 | 0.0 | 2.0 | 0.00 | 0.20 | 0.20 | 98 | 1015.0 |
| 20260903200517 | 64 | 360 | 0.0 | 2.0 | 0.00 | 0.20 | 0.20 | 98 | 1015.1 |
| 20260903200034 | 64 | 0 | 0.0 | 2.0 | 0.00 | 0.20 | 0.20 | 98 | 1015.1 |
| 20260903195517 | 64 | 0 | 0.0 | 3.0 | 0.00 | 0.20 | 0.20 | 98 | 1015.2 |
| 20260903195016 | 64 | 0 | 0.0 | 3.0 | 0.00 | 0.20 | 0.20 | 98 | 1015.3 |
| 20260903194536 | 64 | 360 | 0.0 | 3.0 | 0.00 | 0.20 | 0.20 | 98 | 1015.3 |
| 20260903194020 | 64 | 0 | 0.0 | 1.0 | 0.00 | 0.20 | 0.20 | 98 | 1015.2 |
| 20260903193519 | 64 | 0 | 0.0 | 1.0 | 0.00 | 0.20 | 0.20 | 98 | 1015.3 |
| 20260903193038 | 64 | 0 | 0.0 | 1.0 | 0.00 | 0.20 | 0.20 | 98 | 1015.3 |
| 20260903192516 | 64 | 0 | 0.0 | 2.0 | 0.00 | 0.20 | 0.20 | 98 | 1015.4 |
| 20260903192017 | 64 | 0 | 0.0 | 3.0 | 0.00 | 0.20 | 0.20 | 98 | 1015.4 |
| 20260903191540 | 64 | 0 | 0.0 | 4.0 | 0.00 | 0.20 | 0.20 | 98 | 1015.4 |
| 20260903191018 | 64 | 0 | 0.0 | 4.0 | 0.00 | 0.20 | 0.20 | 98 | 1015.5 |
| 20260903190518 | 64 | 360 | 1.0 | 4.0 | 0.00 | 0.20 | 0.20 | 98 | 1015.5 |
| 20260903190035 | 64 | 0 | 0.0 | 2.0 | 0.00 | 0.20 | 0.20 | 98 | 1015.6 |
| 20260903185520 | 64 | 0 | 0.0 | 0.0 | 0.00 | 0.20 | 0.20 | 98 | 1015.7 |
| 20260903185019 | 64 | 0 | 0.0 | 0.0 | 0.00 | 0.20 | 0.20 | 98 | 1015.7 |
| 20260903184538 | 64 | 0 | 0.0 | 0.0 | 0.00 | 0.20 | 0.20 | 98 | 1015.8 |
| 20260903184021 | 64 | 0 | 0.0 | 2.0 | 0.00 | 0.20 | 0.20 | 98 | 1015.8 |
| 20260903183521 | 64 | 0 | 0.0 | 2.0 | 0.00 | 0.20 | 0.20 | 98 | 1015.9 |
| 20260903183036 | 63 | 360 | 0.0 | 0.0 | 0.00 | 0.20 | 0.20 | 98 | 1015.8 |
| 20260903182517 | 63 | 0 | 0.0 | 2.0 | 0.00 | 0.20 | 0.20 | 98 | 1015.9 |
| 20260903182018 | 63 | 0 | 0.0 | 2.0 | 0.00 | 0.20 | 0.20 | 98 | 1016.1 |
| 20260903181535 | 64 | 360 | 0.0 | 2.0 | 0.00 | 0.20 | 0.20 | 98 | 1016.0 |
| 20260903181018 | 64 | 0 | 0.0 | 0.0 | 0.00 | 0.20 | 0.20 | 98 | 1016.1 |
| 20260903180518 | 63 | 0 | 0.0 | 3.0 | 0.00 | 0.20 | 0.20 | 98 | 1016.0 |
| 20260903180041 | 63 | 0 | 0.0 | 3.0 | 0.00 | 0.20 | 0.20 | 98 | 1016.1 |
| 20260903175515 | 63 | 0 | 0.0 | 4.0 | 0.00 | 0.20 | 0.20 | 98 | 1016.1 |
| 20260903175019 | 63 | 360 | 1.0 | 4.0 | 0.00 | 0.20 | 0.20 | 98 | 1016.1 |
| 20260903174539 | 63 | 0 | 0.0 | 4.0 | 0.00 | 0.20 | 0.20 | 98 | 1016.2 |
| 20260903174021 | 63 | 0 | 0.0 | 4.0 | 0.00 | 0.20 | 0.20 | 98 | 1016.1 |
| 20260903173521 | 63 | 0 | 0.0 | 5.0 | 0.00 | 0.20 | 0.20 | 98 | 1016.1 |
| 20260903173036 | 63 | 360 | 1.0 | 6.0 | 0.00 | 0.20 | 0.20 | 98 | 1016.0 |
| 20260903172519 | 64 | 360 | 2.0 | 6.0 | 0.00 | 0.20 | 0.20 | 98 | 1015.9 |
| 20260903172018 | 64 | 0 | 0.0 | 3.0 | 0.00 | 0.20 | 0.20 | 98 | 1016.0 |
| 20260903171540 | 63 | 360 | 0.0 | 4.0 | 0.00 | 0.20 | 0.20 | 98 | 1016.0 |
| 20260903171018 | 63 | 0 | 0.0 | 4.0 | 0.00 | 0.20 | 0.20 | 98 | 1016.0 |
| 20260903170518 | 63 | 360 | 0.0 | 4.0 | 0.00 | 0.20 | 0.20 | 98 | 1016.0 |
| 20260903170038 | 64 | 360 | 0.0 | 5.0 | 0.00 | 0.20 | 0.20 | 98 | 1016.0 |
| 20260903165521 | 64 | 360 | 1.0 | 5.0 | 0.00 | 0.20 | 0.20 | 98 | 1015.9 |
| 20260903165020 | 63 | 0 | 0.0 | 3.0 | 0.00 | 0.20 | 0.20 | 99 | 1016.2 |
| 20260903164541 | 63 | 0 | 0.0 | 3.0 | 0.00 | 0.20 | 0.20 | 98 | 1016.2 |
| 20260903164022 | 63 | 0 | 0.0 | 5.0 | 0.00 | 0.20 | 0.20 | 98 | 1016.2 |
| 20260903163520 | 63 | 0 | 0.0 | 5.0 | 0.00 | 0.20 | 0.20 | 98 | 1016.2 |
| 20260903163040 | 63 | 360 | 1.0 | 4.0 | 0.00 | 0.20 | 0.20 | 99 | 1016.2 |
| 20260903162518 | 63 | 0 | 0.0 | 5.0 | 0.00 | 0.20 | 0.20 | 99 | 1016.3 |
| 20260903162018 | 63 | 0 | 0.0 | 6.0 | 0.00 | 0.20 | 0.20 | 98 | 1016.4 |
| 20260903161538 | 63 | 360 | 2.0 | 6.0 | 0.00 | 0.20 | 0.20 | 98 | 1016.3 |
| 20260903161018 | 63 | 360 | 1.0 | 5.0 | 0.00 | 0.20 | 0.20 | 98 | 1016.4 |
| 20260903160518 | 63 | 0 | 0.0 | 5.0 | 0.00 | 0.20 | 0.20 | 98 | 1016.5 |
| 20260903160038 | 63 | 360 | 1.0 | 4.0 | 0.00 | 0.20 | 0.20 | 99 | 1016.6 |
| 20260903155517 | 63 | 360 | 0.0 | 3.0 | 0.00 | 0.20 | 0.20 | 98 | 1016.7 |
| 20260903155020 | 63 | 0 | 0.0 | 3.0 | 0.00 | 0.20 | 0.20 | 98 | 1016.8 |
| 20260903154559 | 63 | 0 | 0.0 | 3.0 | 0.00 | 0.20 | 0.20 | 99 | 1016.8 |
| 20260903154020 | 63 | 0 | 0.0 | 2.0 | 0.00 | 0.20 | 0.20 | 99 | 1017.0 |
| 20260903153520 | 63 | 360 | 0.0 | 3.0 | 0.00 | 0.20 | 0.20 | 99 | 1016.8 |
| 20260903153036 | 62 | 0 | 0.0 | 6.0 | 0.00 | 0.20 | 0.20 | 99 | 1017.0 |
| 20260903152518 | 62 | 0 | 1.0 | 6.0 | 0.00 | 0.20 | 0.20 | 99 | 1017.1 |
| 20260903152018 | 62 | 360 | 2.0 | 6.0 | 0.00 | 0.20 | 0.20 | 99 | 1017.1 |
| 20260903151539 | 62 | 360 | 1.0 | 6.0 | 0.00 | 0.20 | 0.20 | 99 | 1017.1 |
| 20260903151018 | 62 | 0 | 1.0 | 6.0 | 0.00 | 0.20 | 0.20 | 99 | 1017.2 |
| 20260903150519 | 62 | 360 | 2.0 | 6.0 | 0.00 | 0.20 | 0.20 | 99 | 1017.2 |
| 20260903150038 | 62 | 360 | 1.0 | 5.0 | 0.00 | 0.20 | 0.20 | 98 | 1017.3 |
| 20260903145524 | 62 | 360 | 0.0 | 4.0 | 0.00 | 0.20 | 0.20 | 98 | 1017.4 |
| 20260903145020 | 62 | 360 | 0.0 | 4.0 | 0.00 | 0.20 | 0.20 | 98 | 1017.5 |
| 20260903144536 | 62 | 360 | 0.0 | 4.0 | 0.00 | 0.20 | 0.20 | 98 | 1017.6 |
| 20260903144026 | 62 | 360 | 1.0 | 4.0 | 0.00 | 0.20 | 0.20 | 99 | 1017.5 |
| 20260903143520 | 62 | 360 | 0.0 | 4.0 | 0.00 | 0.20 | 0.20 | 99 | 1017.5 |
| 20260903143045 | 61 | 360 | 1.0 | 4.0 | 0.00 | 0.20 | 0.20 | 99 | 1017.6 |
| 20260903142522 | 61 | 360 | 0.0 | 3.0 | 0.01 | 0.20 | 0.20 | 98 | 1017.6 |
| 20260903142021 | 61 | 360 | 0.0 | 3.0 | 0.01 | 0.20 | 0.20 | 98 | 1017.7 |
| 20260903141552 | 61 | 0 | 0.0 | 3.0 | 0.01 | 0.20 | 0.20 | 98 | 1017.7 |
| 20260903141017 | 61 | 360 | 0.0 | 3.0 | 0.01 | 0.20 | 0.20 | 98 | 1017.7 |
| 20260903140518 | 61 | 0 | 1.0 | 5.0 | 0.01 | 0.20 | 0.20 | 98 | 1017.7 |
| 20260903140039 | 61 | 360 | 1.0 | 5.0 | 0.01 | 0.20 | 0.20 | 98 | 1017.6 |
| 20260903135517 | 61 | 360 | 1.0 | 5.0 | 0.01 | 0.20 | 0.20 | 98 | 1017.6 |
| 20260903135018 | 61 | 0 | 0.0 | 2.0 | 0.01 | 0.20 | 0.20 | 99 | 1017.7 |
| 20260903134537 | 61 | 0 | 0.0 | 6.0 | 0.01 | 0.20 | 0.20 | 99 | 1017.8 |
| 20260903134018 | 61 | 360 | 1.0 | 6.0 | 0.01 | 0.20 | 0.20 | 99 | 1017.7 |
| 20260903133521 | 61 | 360 | 2.0 | 6.0 | 0.01 | 0.20 | 0.20 | 98 | 1017.6 |
| 20260903133036 | 60 | 0 | 2.0 | 5.0 | 0.01 | 0.20 | 0.20 | 98 | 1017.6 |
| 20260903132520 | 60 | 360 | 2.0 | 5.0 | 0.00 | 0.19 | 0.19 | 98 | 1017.7 |
| 20260903132019 | 60 | 360 | 1.0 | 5.0 | 0.00 | 0.19 | 0.19 | 98 | 1017.7 |
| 20260903131543 | 60 | 360 | 2.0 | 5.0 | 0.00 | 0.19 | 0.19 | 98 | 1017.7 |
| 20260903131018 | 60 | 360 | 2.0 | 5.0 | 0.00 | 0.19 | 0.19 | 99 | 1017.8 |
| 20260903130518 | 60 | 360 | 1.0 | 5.0 | 0.00 | 0.19 | 0.19 | 99 | 1017.7 |
| 20260903130039 | 60 | 0 | 1.0 | 5.0 | 0.01 | 0.19 | 0.19 | 98 | 1017.9 |
| 20260903125519 | 60 | 360 | 1.0 | 8.0 | 0.01 | 0.19 | 0.19 | 98 | 1018.1 |
| 20260903125017 | 60 | 360 | 2.0 | 8.0 | 0.01 | 0.19 | 0.19 | 98 | 1018.1 |
| 20260903124541 | 60 | 360 | 2.0 | 6.0 | 0.01 | 0.19 | 0.19 | 98 | 1018.1 |
| 20260903124018 | 60 | 360 | 2.0 | 6.0 | 0.01 | 0.19 | 0.19 | 98 | 1018.3 |
| 20260903123519 | 59 | 360 | 3.0 | 6.0 | 0.01 | 0.19 | 0.19 | 98 | 1018.3 |
| 20260903123039 | 59 | 0 | 2.0 | 8.0 | 0.02 | 0.19 | 0.19 | 98 | 1018.3 |
| 20260903122521 | 59 | 360 | 2.0 | 8.0 | 0.02 | 0.19 | 0.19 | 98 | 1018.3 |